Showing default

DMSP 5D-2 F13 (USA 109), 23533

Orbit data source: Space-Track

DMSP 5D-2 F13 (USA 109), 23533 is a payload satellite owned by USAF SMC (US) in SSO that was launched on Fri, 24 Mar 1995 UTC via an ATLAS E launch vehicle from the Air Force Western Test Range (AFWTR). Payload-class satellites include a variety of spacecraft equipped with specific instruments for various scientific and technological missions. These include communications satellites like Starlink; space stations such as the ISS; scientific satellites like the Hubble; Earth observation satellites from companies like Planet Labs, Umbra, and HawkEye 360; GPS; miniature CubeSats for education and research; and military/defense satellites.

Loading next visibility...
Identifier
23533, 1995-015A
Orbit
SSO
Country
Flag of USUS
Related business
Manufacturer
LMT/EW
Mission
Non-operational Defense Weather
Bus & Motor
BLOCK 5D, STAR 37S
Mass
1,456 kg wet, 749 kg dry
Launch date (UTC)
1995-03-24 (31 years ago)
Launch vehicle
ATLAS E
Launch site
Air Force Western Test Range (AFWTR)
Object type
Payload
Rocket body
Debris
Shape & HBR
Cyl + 1 Pan, 2.5 m
Radar Cross Section
4.290 m², Large (>1 m²)

Expand to show TLE details & history
Last TLE update: 14 hours ago

TLE from 14 hours ago
0 DMSP 5D-2 F13 (USA 109)
1 23533U 95015A   25306.51840491  .00000164  00000-0  10385-3 0  9995
2 23533  98.8129 317.6232 0007869  83.4015  32.1760 14.16950211581092
Epoch: 2025-11-02T12:26Z
TLE epoch observation values (Epoch: 2025-11-02T12:26:30.184Z)
Latitude
63.09077°
Longitude
-73.34585°
Altitude
841.685 km
Speed
7.44 km/s
True Right ascension
10h 21m 15s
True Declination
62° 57' 12"
Sunlit
Object was in daylight at epoch
Visualization orbit readout
Latitude
Unknown
Longitude
Unknown
Altitude
Unknown
Speed
Unknown
Apparent Right ascension
Unknown
Apparent Declination
Unknown
Sunlit
N/A
Visualization observer readout
Local Sidereal Time
22:10:22
Azimuth
Unknown
Elevation
Unknown
Doppler factor
Unknown
Orbital elements
Apogee altitude
838.527 km
Perigee altitude
827.179 km
Semi-major axis
7,210.99 km
Eccentricity
0.00079
Inclination
98.8129°
RAAN
317.6232°
Arg. of periapsis
83.4015°
True anomaly
32.22406°
Mean anomaly
32.176°
Eccentric anomaly
32.20003°
Mean motion
3.54447 °/min
Orbital period
101.57 mins
BSTAR
0.00010385
Loading maneuver chart data...
Computing Atmospheric mass density...

Documentation

Showing up to 5 results
|